Weather reports worldwide

Advertisment
High Beech, United Kingdom (99096): temperature & dewpoint: 18.10.2020 18:00:00 - 24.10.2020 18:00:00 (BST)High Beech, United Kingdom (99096): temperature -20cm & temperature -100cm: 18.10.2020 18:00:00 - 24.10.2020 18:00:00 (BST)High Beech, United Kingdom (99096): precipitation: 18.10.2020 18:00:00 - 24.10.2020 18:00:00 (BST)
Date & Time tt [°C] td [°C] tt -20cm [°C] tt -100cm [°C] rr [mm]
24.10.2020 18:00:00 - - - - -
24.10.2020 17:00:00 14,8 12,8 - - 0,0
24.10.2020 16:00:00 14,2 13,2 - - 0,0
24.10.2020 15:00:00 13,5 12,9 - - 0,2
24.10.2020 14:00:00 14,1 11,7 - - 0,0
24.10.2020 13:00:00 13,9 11,3 - - 0,0
24.10.2020 12:00:00 14,1 11,3 - - 0,0
24.10.2020 11:00:00 12,9 10,9 - - 0,0
24.10.2020 10:00:00 12,1 10,3 11,0 13,0 0,0
24.10.2020 09:00:00 10,6 9,1 - - 0,0
24.10.2020 08:00:00 9,4 8,8 - - 0,0
24.10.2020 07:00:00 8,6 8,6 - - 0,0
24.10.2020 06:00:00 7,1 7,0 - - 0,0
24.10.2020 05:00:00 6,9 6,9 - - 0,0
24.10.2020 04:00:00 6,2 6,2 - - 0,0
24.10.2020 03:00:00 5,5 5,4 - - 0,0
24.10.2020 02:00:00 5,2 4,8 - - 0,0
24.10.2020 01:00:00 5,8 5,1 - - 0,0
24.10.2020 00:00:00 6,8 5,4 - - 0,0
23.10.2020 23:00:00 7,9 5,5 - - 0,0
23.10.2020 22:00:00 8,9 4,9 - - 0,0
23.10.2020 21:00:00 10,0 5,0 - - 0,0
23.10.2020 20:00:00 11,6 7,0 - - 0,0
23.10.2020 19:00:00 11,9 9,2 - - 0,0
23.10.2020 18:00:00 12,2 9,4 - - 0,0
23.10.2020 17:00:00 13,2 9,3 - - 0,0
23.10.2020 16:00:00 14,3 9,4 - - 0,0
23.10.2020 15:00:00 14,8 9,9 - - 0,0
23.10.2020 14:00:00 14,9 11,3 - - 0,0
23.10.2020 13:00:00 14,1 11,3 - - 0,0
23.10.2020 12:00:00 14,2 11,3 - - 0,0
23.10.2020 11:00:00 13,9 11,2 - - 0,0
23.10.2020 10:00:00 12,5 12,0 11,9 13,0 0,0
23.10.2020 09:00:00 11,3 11,3 - - 0,0
23.10.2020 08:00:00 10,6 10,6 - - 0,0
23.10.2020 07:00:00 10,3 10,3 - - 0,0
23.10.2020 06:00:00 10,6 10,6 - - 0,0
23.10.2020 05:00:00 10,4 10,4 - - 0,0
23.10.2020 04:00:00 10,1 10,1 - - 0,0
23.10.2020 03:00:00 9,6 9,5 - - 0,0
23.10.2020 02:00:00 10,1 10,0 - - 0,0
23.10.2020 01:00:00 10,1 9,9 - - 0,0
23.10.2020 00:00:00 10,1 9,8 - - 0,0
22.10.2020 23:00:00 9,8 8,9 - - 0,0
22.10.2020 22:00:00 10,9 9,7 - - 0,0
22.10.2020 21:00:00 10,7 9,4 - - 0,0
22.10.2020 20:00:00 10,9 10,5 - - 0,0
22.10.2020 19:00:00 10,2 9,5 - - 0,0
22.10.2020 18:00:00 11,5 9,2 - - 0,0
22.10.2020 17:00:00 12,8 9,4 - - 0,0
22.10.2020 16:00:00 14,1 9,8 - - 0,0
22.10.2020 15:00:00 14,7 10,0 - - 0,0
22.10.2020 14:00:00 14,3 9,6 - - 0,0
22.10.2020 13:00:00 15,2 10,1 - - 0,0
22.10.2020 12:00:00 12,9 9,6 - - 0,0
22.10.2020 11:00:00 13,6 10,8 - - 0,0
22.10.2020 10:00:00 12,8 10,6 12,0 13,0 0,0
22.10.2020 09:00:00 11,8 10,6 - - 0,0
22.10.2020 08:00:00 11,1 10,2 - - 0,0
22.10.2020 07:00:00 11,1 10,3 - - 0,0
22.10.2020 06:00:00 11,4 10,2 - - 0,0
22.10.2020 05:00:00 11,6 10,5 - - 0,0
22.10.2020 04:00:00 11,1 10,1 - - 0,0
22.10.2020 03:00:00 11,1 10,2 - - 0,0
22.10.2020 02:00:00 11,0 10,3 - - 0,0
22.10.2020 01:00:00 11,7 10,8 - - 0,0
22.10.2020 00:00:00 11,8 10,3 - - 0,0
21.10.2020 23:00:00 12,8 12,2 - - 0,0
21.10.2020 22:00:00 12,7 12,3 - - 0,0
21.10.2020 21:00:00 12,9 12,6 - - 0,2
21.10.2020 20:00:00 13,1 12,9 - - 0,0
21.10.2020 19:00:00 13,4 13,2 - - 0,0
21.10.2020 18:00:00 13,2 12,9 - - 0,0
21.10.2020 17:00:00 13,5 13,1 - - 0,8
21.10.2020 16:00:00 14,6 14,4 - - 3,4
21.10.2020 15:00:00 14,7 14,5 - - 0,2
21.10.2020 14:00:00 14,5 14,4 - - 0,2
21.10.2020 13:00:00 14,5 14,4 - - 0,6
21.10.2020 12:00:00 14,1 14,1 - - 2,6
21.10.2020 11:00:00 13,5 13,5 - - 2,6
21.10.2020 10:00:00 13,4 13,4 12,2 12,9 1,2
21.10.2020 09:00:00 13,2 13,2 - - 1,0
21.10.2020 08:00:00 13,3 13,3 - - 2,0
21.10.2020 07:00:00 13,5 13,5 - - 2,6
21.10.2020 06:00:00 13,5 13,5 - - 1,6
21.10.2020 05:00:00 13,5 13,4 - - 1,0
21.10.2020 04:00:00 - - - - -
21.10.2020 03:00:00 13,1 12,9 - - 0,0
21.10.2020 02:00:00 13,0 12,7 - - 0,0
21.10.2020 01:00:00 - - - - -
21.10.2020 00:00:00 13,0 12,7 - - 0,0
20.10.2020 23:00:00 13,0 12,7 - - 0,0
20.10.2020 22:00:00 13,2 12,6 - - 0,0
20.10.2020 21:00:00 13,1 12,7 - - 0,0
20.10.2020 20:00:00 13,6 12,5 - - 0,0
20.10.2020 19:00:00 14,3 12,5 - - 0,0
20.10.2020 18:00:00 15,1 12,0 - - 0,0
20.10.2020 17:00:00 15,6 11,8 - - 0,0
20.10.2020 16:00:00 16,4 11,7 - - 0,0
20.10.2020 15:00:00 16,8 11,6 - - 0,0
20.10.2020 14:00:00 16,9 11,7 - - 0,0
20.10.2020 13:00:00 17,0 12,5 - - 0,0
20.10.2020 12:00:00 16,1 12,6 - - 0,0
20.10.2020 11:00:00 14,9 13,4 - - 0,0
20.10.2020 10:00:00 13,3 12,6 11,2 12,7 0,0
20.10.2020 09:00:00 12,5 12,2 - - 0,0
20.10.2020 08:00:00 12,1 12,0 - - 0,2
20.10.2020 07:00:00 11,8 11,7 - - 0,2
20.10.2020 06:00:00 11,3 10,9 - - 0,2
20.10.2020 05:00:00 10,8 10,0 - - 0,2
20.10.2020 04:00:00 10,5 8,9 - - 0,0
20.10.2020 03:00:00 10,3 8,4 - - 0,0
20.10.2020 02:00:00 10,0 8,0 - - 0,0
20.10.2020 01:00:00 9,9 7,7 - - 0,0
20.10.2020 00:00:00 10,3 7,7 - - 0,0
19.10.2020 23:00:00 10,6 7,6 - - 0,0
19.10.2020 22:00:00 10,9 7,4 - - 0,0
19.10.2020 21:00:00 10,6 7,7 - - 0,0
19.10.2020 20:00:00 10,6 7,3 - - 0,0
19.10.2020 19:00:00 11,0 7,4 - - 0,0
19.10.2020 18:00:00 11,3 6,6 - - 0,0
19.10.2020 17:00:00 12,3 5,7 - - 0,0
19.10.2020 16:00:00 12,8 6,2 - - 0,0
19.10.2020 15:00:00 14,4 5,8 - - 0,0
19.10.2020 14:00:00 14,1 7,1 - - 0,0
19.10.2020 13:00:00 14,1 8,0 - - 0,0
19.10.2020 12:00:00 13,0 8,4 - - 0,0
19.10.2020 11:00:00 12,0 9,5 - - 0,0
19.10.2020 10:00:00 10,3 9,7 11,0 12,9 0,0
19.10.2020 09:00:00 8,6 8,5 - - 0,0
19.10.2020 08:00:00 8,3 8,2 - - 0,0
19.10.2020 07:00:00 7,5 7,3 - - 0,0
19.10.2020 06:00:00 8,3 8,0 - - 0,0
19.10.2020 05:00:00 8,3 8,1 - - 0,0
19.10.2020 04:00:00 8,3 8,0 - - 0,0
19.10.2020 03:00:00 8,3 8,0 - - 0,0
19.10.2020 02:00:00 8,3 7,9 - - 0,0
19.10.2020 01:00:00 8,3 7,8 - - 0,0
19.10.2020 00:00:00 8,4 7,8 - - 0,0
18.10.2020 23:00:00 8,5 7,9 - - 0,0
18.10.2020 22:00:00 8,7 8,0 - - 0,0
18.10.2020 21:00:00 8,8 7,8 - - 0,0
18.10.2020 20:00:00 8,8 7,6 - - 0,0
18.10.2020 19:00:00 9,0 7,1 - - 0,0
18.10.2020 18:00:00 9,5 6,7 - - 0,0

tt = temperature
td = dewpoint
tt -20cm = temperature -20cm
tt -100cm = temperature -100cm
rr = precipitation

Next stations